Wind_Speed
8 8 8 8 8 7 4 1 7 10 10 10 10 10 10 10 10 10 10 11 12 13 15 16 18 18 17 17 16 16 16 16 15 15 14 12 10 9 8 7 6 6 6
6 5 5 6 6 6 6 5 2 2 6 8 9 9 10 10 10 10 11 11 12 12 13 14 16 17 18 17 17 17 17 17 17 16 14 12 11 10 9 8 7 7 7
9 7 5 4 4 4 5 5 5 3 1 1 3 5 6 7 8 9 9 10 11 11 11 12 14 15 16 16 16 17 17 16 16 15 14 13 12 11 10 10 9 9 9
9 9 7 5 4 4 3 3 3 3 2 1 0 2 3 5 6 7 8 9 10 10 11 12 12 13 13 14 15 15 15 14 14 13 13 13 13 12 12 12 12 11 11
8 8 8 7 6 4 4 4 4 3 2 2 1 2 3 3 4 5 6 7 8 9 10 11 11 11 12 13 14 14 15 14 13 13 13 14 14 14 14 14 14 13 13
8 8 7 7 7 6 5 5 5 6 6 6 6 6 5 6 6 6 7 7 8 9 10 10 11 11 12 13 14 15 16 16 15 14 15 15 15 15 15 15 15 16 16
9 9 9 8 8 8 7 6 6 6 8 9 9 10 10 10 10 10 10 10 10 11 11 12 12 13 14 15 15 16 17 17 17 16 16 17 17 17 17 17 17 17 18
9 9 10 10 10 10 10 9 9 8 9 9 11 12 13 14 14 15 15 14 14 14 14 14 15 15 16 16 17 17 17 18 18 18 18 18 18 18 18 19 19 18 19
11 10 10 11 12 12 12 12 12 12 11 11 12 13 14 15 16 18 19 19 18 18 18 18 18 18 18 19 19 19 19 19 20 20 20 20 19 19 19 19 19 19 19
13 12 11 11 12 13 14 15 16 16 16 16 16 16 16 16 17 18 20 21 22 22 22 22 22 22 22 22 22 22 22 22 22 22 22 22 21 21 21 21 21 21 20
15 15 14 14 13 14 14 16 17 19 20 20 21 21 21 20 20 20 21 22 23 24 24 25 25 26 25 25 25 25 25 24 24 24 24 24 24 24 23 23 23 22 21
16 17 18 18 18 18 18 19 19 21 22 23 24 25 26 26 25 25 25 25 25 25 25 26 27 27 28 28 29 29 28 28 27 27 27 27 27 26 26 25 25 24 23
18 19 20 21 22 23 24 24 24 25 25 26 26 27 28 29 30 30 30 30 29 29 28 28 28 28 29 30 30 30 31 31 31 30 30 30 30 30 29 29 28 28 27
21 21 21 22 24 25 26 28 29 29 30 30 30 30 30 31 32 33 33 34 34 34 34 33 32 31 31 31 31 32 33 33 33 33 32 32 33 33 33 33 32 32 31
23 23 23 24 25 26 27 29 30 31 33 34 34 34 34 33 33 34 35 35 36 37 38 38 37 37 36 36 36 36 36 36 36 35 34 34 35 35 35 35 35 35 35
26 26 26 26 26 27 28 29 31 32 34 36 37 37 37 37 37 37 37 37 38 39 39 40 41 41 41 41 41 41 41 41 40 39 38 37 37 37 37 37 37 36 36
27 28 28 27 27 28 29 30 31 33 35 36 38 39 40 40 40 40 40 41 41 42 42 42 43 43 44 44 45 45 45 45 45 44 43 42 41 41 40 40 39 38 37
29 29 29 29 30 30 31 31 32 33 35 37 39 40 41 42 43 43 44 44 45 45 46 46 46 46 46 47 47 47 47 47 47 47 46 45 45 45 45 44 44 43 41
31 31 31 32 32 32 33 33 34 35 35 37 38 40 42 43 44 45 46 47 48 48 49 49 49 49 49 49 49 50 50 49 49 48 47 47 47 47 47 48 47 46 45
33 33 34 34 35 35 36 37 37 37 38 39 39 41 42 44 45 46 47 48 49 50 51 52 52 52 52 52 52 52 52 52 52 51 51 50 49 49 49 49 49 48 47
35 36 37 38 38 39 40 41 42 42 42 43 43 44 45 46 47 48 49 50 50 51 52 53 54 55 56 56 55 55 54 54 54 54 54 53 53 52 51 50 50 49 48
38 39 40 41 42 43 44 45 47 48 48 49 49 49 50 50 51 52 53 54 54 55 55 56 56 57 58 59 59 59 58 57 57 56 56 56 56 56 55 54 53 52 51
41 42 43 44 46 47 48 49 51 52 53 54 54 54 54 55 55 55 56 57 57 58 59 59 59 59 60 60 61 62 62 61 60 59 58 58 58 58 58 57 57 56 54
45 46 48 49 50 51 51 52 54 56 57 58 58 58 59 59 59 59 60 61 61 62 62 63 63 63 64 64 64 65 66 66 64 61 60 61 61 60 59 59 59 59 58
49 51 52 54 55 55 56 57 58 59 60 62 62 62 62 63 63 64 65 65 66 66 66 66 67 68 68 68 68 68 69 70 70 68 64 62 63 63 62 61 61 61 61
54 55 56 58 59 59 60 60 61 62 63 64 65 66 66 67 67 68 68 69 70 71 71 71 72 72 72 73 73 74 74 74 75 75 73 69 66 65 66 65 64 63 63
Wind_Direction
52 54 54 54 54 55 60 200 229 234 238 244 251 256 258 262 267 272 273 273 270 266 262 260 259 260 262 264 265 267 271 273 276 276 275 273 275 276 272 263 253 247 242
38 42 45 45 45 46 49 55 70 221 235 244 253 261 265 267 270 275 277 278 276 274 269 265 262 262 262 263 264 268 270 272 272 272 269 266 263 261 258 253 247 245 242
29 25 17 14 18 24 32 41 50 56 69 237 251 261 270 274 275 278 280 280 278 276 273 267 263 261 260 261 262 264 265 266 265 264 261 258 253 249 247 246 246 247 247
18 19 15 3 344 334 342 360 20 38 45 43 313 270 272 276 277 276 277 278 279 277 275 270 264 260 256 255 255 256 256 256 256 256 253 250 248 246 244 244 245 247 249
355 358 1 1 355 334 307 297 301 303 301 294 284 275 273 274 274 271 270 270 272 272 271 268 263 257 252 249 249 250 250 250 249 249 249 249 249 247 245 245 245 247 251
330 329 330 334 337 336 324 300 281 276 275 272 269 266 264 264 265 263 262 260 259 257 255 255 254 251 249 248 249 251 253 253 251 249 249 250 251 250 249 248 248 250 253
321 314 309 307 307 310 312 308 297 282 273 269 268 266 265 264 263 261 259 257 256 254 252 250 248 247 248 249 251 253 257 258 257 254 251 250 250 251 251 252 253 254 255
322 312 304 299 295 293 293 294 293 290 285 279 274 269 266 263 263 263 262 261 260 260 258 256 253 250 249 250 251 252 254 256 257 257 255 253 253 253 253 254 255 255 256
324 316 306 298 293 289 285 283 281 280 280 279 279 278 274 271 267 266 265 264 263 263 261 259 258 256 254 252 252 253 253 253 254 255 255 255 255 255 256 257 258 258 257
310 309 304 299 295 291 287 282 279 277 275 274 273 273 274 275 274 273 271 269 266 264 263 262 261 260 258 257 255 254 253 252 252 252 253 254 255 255 257 259 260 260 260
295 294 292 291 289 287 285 282 280 277 275 274 272 270 270 270 271 272 273 272 270 268 267 265 264 262 262 261 260 258 256 254 253 253 253 255 256 257 258 259 259 259 259
290 287 286 286 284 282 279 278 277 276 275 274 273 272 271 269 268 268 268 270 271 272 271 270 268 267 265 265 264 263 261 259 257 256 256 256 257 258 259 258 257 257 257
294 289 285 283 282 281 280 278 276 275 274 274 274 274 273 272 269 267 266 266 267 269 270 270 270 270 269 268 267 267 266 264 263 261 259 259 258 259 259 259 258 257 257
296 293 290 286 284 282 280 279 277 276 276 276 276 275 275 275 273 270 267 265 265 265 265 265 266 267 268 268 268 268 268 267 266 265 264 263 262 261 260 260 259 259 258
297 295 292 289 287 284 282 279 278 276 275 274 274 274 274 274 275 274 272 270 267 265 264 263 263 262 263 264 265 266 267 267 267 267 267 267 267 265 264 263 262 261 260
299 297 295 292 289 286 283 280 278 276 274 273 271 271 271 271 271 272 273 273 271 268 267 265 265 263 262 262 262 263 264 265 266 266 267 268 268 268 268 266 265 263 262
296 295 294 293 290 287 285 282 279 277 275 274 272 272 271 270 269 268 269 270 271 271 270 268 267 266 265 264 264 264 264 264 265 265 265 266 266 267 267 267 267 266 265
293 293 292 292 291 290 287 285 282 280 278 276 275 273 272 271 270 269 268 267 268 269 269 269 268 267 267 266 266 266 265 265 266 266 266 266 265 265 265 265 265 265 265
292 291 291 291 290 289 288 286 284 282 279 277 276 275 274 272 271 271 270 269 268 268 268 268 268 267 267 267 267 267 267 267 267 267 267 266 266 265 264 264 264 264 264
291 291 290 289 288 288 287 286 284 282 280 278 276 274 273 273 272 272 271 270 270 269 269 268 267 267 266 266 265 265 266 266 267 267 267 266 266 265 264 263 263 263 262
289 289 288 288 287 286 285 284 283 281 280 278 276 274 272 271 271 270 270 270 269 269 269 269 268 268 267 266 265 264 264 264 264 264 265 265 265 265 264 263 263 262 262
287 286 285 285 285 285 284 283 282 280 278 276 275 273 272 270 269 269 269 269 269 269 268 267 267 268 267 267 266 264 263 262 262 262 262 262 263 263 263 263 263 262 262
286 285 285 284 284 283 282 281 280 279 278 276 274 272 271 269 268 268 267 267 267 267 267 267 266 266 266 266 266 266 264 262 261 261 261 260 260 261 261 261 262 262 262
285 285 284 283 283 282 280 279 278 277 276 275 274 272 271 269 268 267 267 266 266 266 266 266 265 265 265 265 264 265 265 264 262 259 260 260 259 259 259 259 260 260 260
285 284 284 283 283 281 279 277 276 275 274 273 273 272 271 270 270 269 268 267 267 266 266 266 265 265 264 264 264 264 264 264 264 262 258 257 259 259 258 257 258 259 259
285 284 284 283 283 282 280 278 277 275 274 273 273 273 273 272 272 272 271 270 270 269 269 268 268 267 266 266 265 265 265 264 264 263 261 257 256 257 258 258 257 257 258
Height
5862 5862 5862 5862 5862 5862 5862 5863 5864 5865 5866 5867 5868 5869 5870 5871 5872 5873 5875 5876 5877 5877 5878 5879 5880 5881 5882 5883 5884 5884 5885 5885 5886 5886 5887 5888 5888 5889 5889 5889 5890 5890 5890
5863 5863 5863 5863 5863 5863 5863 5863 5863 5864 5865 5866 5867 5868 5869 5870 5871 5872 5873 5874 5875 5875 5876 5877 5878 5879 5880 5881 5881 5882 5882 5883 5883 5884 5885 5885 5886 5886 5887 5887 5888 5889 5889
5864 5863 5864 5864 5864 5864 5864 5864 5864 5864 5864 5865 5866 5867 5868 5868 5869 5870 5871 5872 5873 5873 5874 5875 5876 5876 5877 5878 5879 5879 5879 5880 5881 5881 5882 5883 5883 5884 5884 5885 5886 5886 5887
5865 5864 5864 5864 5864 5864 5864 5864 5864 5864 5865 5865 5866 5866 5867 5868 5868 5869 5870 5870 5871 5872 5872 5873 5874 5874 5875 5876 5876 5876 5877 5877 5878 5879 5879 5880 5881 5881 5882 5882 5883 5884 5884
5865 5865 5864 5864 5864 5864 5864 5864 5864 5864 5864 5865 5865 5866 5866 5866 5867 5867 5868 5868 5869 5870 5870 5871 5871 5872 5873 5873 5873 5874 5874 5875 5876 5876 5877 5877 5878 5879 5879 5880 5880 5881 5882
5865 5864 5864 5864 5864 5864 5864 5863 5863 5863 5864 5864 5864 5864 5865 5865 5865 5866 5866 5866 5866 5867 5867 5868 5868 5869 5870 5870 5871 5871 5871 5872 5873 5874 5874 5874 5875 5875 5876 5877 5877 5878 5879
5864 5863 5863 5863 5863 5863 5863 5863 5863 5863 5863 5863 5863 5863 5863 5864 5864 5864 5864 5864 5864 5864 5864 5865 5865 5866 5866 5867 5867 5868 5868 5869 5870 5870 5871 5871 5872 5872 5873 5873 5874 5875 5875
5863 5862 5862 5862 5862 5862 5862 5862 5862 5862 5861 5861 5861 5861 5861 5861 5861 5861 5862 5862 5862 5862 5862 5862 5863 5863 5863 5863 5864 5864 5865 5866 5866 5867 5867 5868 5869 5869 5869 5870 5870 5871 5871
5862 5861 5861 5860 5860 5860 5860 5860 5860 5860 5859 5859 5859 5859 5859 5859 5859 5858 5858 5859 5859 5859 5859 5859 5860 5860 5860 5860 5860 5861 5861 5862 5862 5863 5863 5864 5865 5865 5865 5866 5867 5867 5868
5860 5860 5859 5859 5858 5858 5857 5857 5857 5857 5857 5856 5856 5856 5856 5856 5856 5855 5855 5855 5855 5855 5856 5856 5856 5856 5857 5857 5857 5857 5857 5858 5858 5859 5859 5860 5860 5861 5861 5862 5862 5863 5864
5857 5857 5856 5856 5856 5855 5855 5854 5854 5853 5853 5853 5853 5853 5853 5852 5852 5852 5851 5851 5851 5851 5852 5852 5852 5852 5852 5853 5853 5853 5853 5853 5854 5854 5855 5855 5855 5856 5857 5857 5857 5858 5859
5854 5854 5853 5853 5852 5852 5851 5851 5850 5849 5849 5849 5849 5849 5849 5848 5848 5848 5847 5847 5847 5847 5848 5848 5848 5848 5848 5848 5848 5848 5848 5848 5849 5849 5850 5850 5850 5851 5851 5852 5852 5853 5853
5851 5850 5850 5849 5849 5848 5848 5847 5846 5845 5845 5844 5844 5844 5844 5844 5843 5843 5843 5842 5842 5842 5842 5843 5843 5843 5843 5843 5843 5843 5843 5843 5843 5843 5844 5844 5844 5844 5845 5846 5846 5847 5848
5847 5846 5846 5845 5844 5843 5843 5842 5842 5841 5841 5840 5839 5839 5838 5838 5837 5837 5837 5837 5836 5836 5836 5836 5837 5837 5837 5838 5838 5837 5837 5837 5837 5837 5837 5838 5838 5838 5838 5839 5839 5840 5841
5842 5841 5841 5840 5839 5838 5837 5836 5836 5835 5835 5834 5834 5833 5832 5832 5831 5831 5830 5830 5830 5829 5829 5829 5829 5830 5830 5830 5831 5831 5830 5830 5831 5831 5831 5831 5831 5831 5831 5831 5832 5832 5833
5836 5835 5835 5834 5833 5832 5831 5830 5829 5828 5828 5827 5826 5826 5825 5824 5824 5824 5823 5822 5822 5822 5822 5821 5821 5822 5822 5822 5822 5822 5822 5822 5823 5824 5824 5824 5824 5824 5824 5824 5824 5824 5825
5831 5830 5829 5828 5827 5825 5824 5823 5822 5821 5820 5819 5818 5818 5817 5817 5816 5815 5815 5814 5813 5813 5813 5813 5813 5813 5813 5813 5813 5813 5813 5813 5814 5814 5815 5816 5816 5816 5815 5815 5816 5816 5817
5825 5824 5822 5821 5820 5819 5817 5816 5815 5814 5813 5811 5810 5809 5808 5808 5807 5807 5806 5805 5803 5802 5802 5802 5802 5803 5803 5803 5803 5804 5804 5804 5804 5805 5805 5806 5806 5806 5806 5806 5806 5807 5807
5818 5817 5816 5815 5813 5812 5810 5809 5807 5806 5805 5803 5802 5801 5799 5798 5797 5797 5796 5795 5794 5793 5791 5791 5791 5791 5791 5792 5792 5793 5793 5794 5794 5795 5795 5795 5795 5795 5795 5795 5795 5796 5797
5811 5810 5809 5808 5806 5805 5803 5801 5800 5798 5797 5795 5793 5792 5790 5789 5788 5786 5785 5784 5783 5782 5781 5780 5779 5779 5779 5779 5780 5780 5781 5782 5783 5784 5784 5784 5784 5783 5783 5784 5784 5785 5786
5804 5803 5802 5801 5799 5797 5795 5793 5791 5789 5788 5786 5784 5782 5780 5778 5777 5775 5774 5772 5771 5770 5769 5768 5767 5766 5766 5765 5766 5767 5768 5769 5770 5770 5771 5772 5772 5772 5772 5772 5773 5773 5774
5796 5794 5793 5792 5790 5788 5786 5784 5782 5779 5777 5775 5773 5771 5769 5767 5765 5763 5761 5760 5758 5757 5756 5755 5754 5753 5752 5752 5752 5752 5754 5756 5755 5757 5757 5758 5759 5759 5759 5760 5761 5762 5762
5786 5784 5783 5781 5779 5777 5775 5773 5771 5768 5766 5763 5760 5758 5756 5754 5751 5749 5748 5746 5744 5743 5741 5740 5739 5739 5738 5737 5737 5737 5738 5740 5742 5743 5743 5743 5744 5745 5745 5746 5747 5748 5749
5775 5773 5771 5769 5767 5765 5763 5761 5758 5756 5753 5749 5747 5744 5742 5739 5737 5735 5733 5731 5729 5727 5726 5725 5724 5723 5722 5722 5721 5720 5721 5721 5724 5729 5730 5728 5728 5729 5730 5731 5733 5734 5735
5762 5760 5758 5756 5754 5751 5749 5746 5744 5741 5738 5734 5732 5729 5726 5724 5721 5719 5717 5715 5713 5711 5709 5708 5707 5706 5705 5705 5704 5704 5704 5703 5703 5708 5714 5715 5713 5713 5714 5716 5717 5718 5719
5748 5746 5744 5741 5739 5736 5733 5731 5728 5725 5722 5719 5716 5713 5710 5707 5704 5702 5699 5697 5695 5693 5691 5690 5688 5687 5686 5685 5685 5685 5685 5685 5684 5685 5690 5696 5699 5699 5698 5699 5700 5701 5702